Location: Arrington
(35.8681°N, 86.7092°W)
Time: 18:39:23
(UTC+00:00)

STARLINK 1045 - Pass Details

Date: 23 November 2019
Orbit: 450 x 452 km, 53.0° (Epoch: 10 December)

Event Time Altitude Azimuth Distance (km) Brightness Sun altitude
Exits shadow 10:05:12 18° 124° (SE) 1,182 5.9 -29.2°
Drops below altitude 10° 10:07:30 10° 83° (E) 1,573 6.8 -28.7°
Enters shadow 11:10:27 -57° 228° (SW) 11,245 10.2 -16.2°
Maximum altitude 11:42:05 39° 321° (NW) 681 3.7 -10.0°
